Regional Weather Roundup
Issued by NWS Columbia, SC

Home | Current Version | Previous Version | Text Only | Print | Product List | Glossary On
Versions: 1 2 3 4 5 6 7 8 9 10 11 12 13 14 15 16 17 18 19 20 21 22 23 24 25 26 27
000
ASUS42 KCAE 171410
RWRCAE
REGIONAL WEATHER ROUNDUP
NATIONAL WEATHER SERVICE COLUMBIA SC
1000 AM EDT THU AUG 17 2017

NOTE: "FAIR" INDICATES FEW OR NO CLOUDS BELOW 12,000 FEET WITH NO
SIGNIFICANT WEATHER AND/OR OBSTRUCTIONS TO VISIBILITY.

NOT ALL STATIONS ARE QUALITY CONTROLLED BY THE NATIONAL
WEATHER SERVICE. USE DATA WITH CAUTION...ESPECIALLY
DEWPOINT OBSERVATIONS.

SCZ001>056-GAZ040-063>065-077-171500-
...UPSTATE SOUTH CAROLINA...

CITY           SKY/WX    TMP DP  RH WIND       PRES   REMARKS
ANDERSON       SUNNY     85  74  69 W7        30.08R
LIBERTY        SUNNY     82  75  77 CALM      30.08S
SPARTANBURG    SUNNY     81  72  74 CALM      30.07S
CLEMSON        MOSUNNY   82  76  81 CALM      30.09S
GREENVILLE     SUNNY     85  73  67 CALM      30.10R
GREENWOOD      SUNNY     85  74  69 W6        30.08S
GREER          SUNNY     82  73  74 CALM      30.08R
ROCK HILL      SUNNY     86  77  74 CALM      30.07S HX  97
CHESTER        SUNNY     84  73  70 CALM      30.07S
LAURENS        SUNNY     82  73  74 S3        30.07S


...CENTRAL SOUTH CAROLINA...

CITY           SKY/WX    TMP DP  RH WIND       PRES   REMARKS
COLUMBIA APT   MOSUNNY   90  75  61 SW5       30.04S HX 100
COLUMBIA OWENS SUNNY     88  76  67 S5        30.05S HX  99
MCENTIRE ANGB  SUNNY     89  77  67 CALM      30.05S HX 101
ORANGEBURG     SUNNY     87  76  69 CALM      30.05S HX  97
SUMTER SHAW    SUNNY     90  74  59 NW5       30.02R HX  98
NEWBERRY       SUNNY     84  77  79 W6        30.10R
AIKEN          FAIR      86  75  70 W5        30.11R HX  95
BARNWELL       FAIR      90  79  70 W5        30.06S HX 105
MANNING        FAIR      88  77  70 NW10      30.04S HX 100
CAMDEN         FAIR      88  77  70 CALM      30.05S HX 100
LANCASTER      SUNNY     86  77  74 SW5       30.06S HX  97
WINNSBORO      SUNNY     86  73  66 CALM      30.06S


...EASTERN AND COASTAL SOUTH CAROLINA...

CITY           SKY/WX    TMP DP  RH WIND       PRES   REMARKS
MYRTLE BEACH   SUNNY     88  81  79 CALM      30.04S HX 105
N MYRTLE BCH   MOSUNNY   85  80  85 SE6       30.03S HX  99
CONWAY         FAIR      86  79  79 CALM      30.03F HAZE    HX  99
MARION         FAIR      82  77  83 CALM      30.04R
HARTSVILLE     FAIR      84  77  79 CALM      30.04S
FLORENCE       SUNNY     86  80  82 W5        30.04S HX 101
DARLINGTON     SUNNY     85  79  82 CALM      30.04S HX  98
CHARLESTON APT MOSUNNY   89  42  19 W5        30.04S
MOUNT PLEASANT FAIR      90  79  70 W3        30.04S HX 105
WALTERBORO     SUNNY     86  77  74 CALM      30.06S HX  97
BEAUFORT       SUNNY     89  79  72 CALM      30.05S HX 104


...EASTERN GEORGIA...

CITY           SKY/WX    TMP DP  RH WIND       PRES   REMARKS
AUGUSTA BUSH F SUNNY     90  76  63 VRB3      30.06R HX 101
AUGUSTA DANIEL SUNNY     88  73  61 NW6       30.08R HX  95
THOMSON        SUNNY     85  75  71 N5        30.13S
CLAXTON        FAIR      89  78  71 CALM      30.07S HX 103
SYLVANIA       SUNNY     88  80  77 NW5       30.08S HX 103
STATESBORO     MOSUNNY   88  73  62 NW3       30.08R HX  95
SAVANNAH       MOSUNNY   89  77  67 VRB3      30.06S HX 101


...SOUTHERN NORTH CAROLINA...

CITY           SKY/WX    TMP DP  RH WIND       PRES   REMARKS
CHARLOTTE      MOSUNNY   85  77  77 NW3       30.07S HX  95
MONROE         SUNNY     85  75  72 W3        30.06R
WADESBORO      SUNNY     84  76  77 CALM      30.05R
ROCKINGHAM     SUNNY     84  78  82 CALM      30.05R HX  95
RUTHERFORDTON  SUNNY     81  73  78 CALM      30.11R
ASHEVILLE      SUNNY     76  69  79 N5        30.16F

$$




USA.gov is the U.S. government's official web portal to all federal, state and local government web resources and services.